Regional Weather Roundup
Issued by NWS

Home | Current Version | Previous Version | Graphics & Text | Print | Product List | Glossary On
Versions: 1 2 3 4 5 6 7 8 9 10 11 12 13 14 15 16 17 18 19 20 21 22 23 24 25 26 27
000
ASUS45 KPSR 220210
RWRAZ

ARIZONA HOURLY REGIONAL WEATHER ROUNDUP
NATIONAL WEATHER SERVICE PHOENIX AZ
700 PM MST SAT OCT 21 2017

NOTE: FAIR INDICATES FEW OR NO CLOUDS BELOW 12,000 FEET WITH NO
SIGNIFICANT WEATHER AND/OR OBSTRUCTIONS TO VISIBILITY.

AZZ001>003-036-220300-
NORTHWEST ARIZONA

CITY           SKY/WX    TMP DP  RH WIND       PRES   REMARKS
BULLHEAD CITY  CLEAR     75  16  10 N17G24    30.08R
KINGMAN        PTCLDY    58  13  17 NE8       30.20R
$$

AZZ004>008-015-016-018-220300-
NORTH CENTRAL ARIZONA

CITY           SKY/WX    TMP DP  RH WIND       PRES   REMARKS
GRAND CANYON   CLEAR     36   3  25 NE3       30.32R
WILLIAMS       CLEAR     46  -4  12 CALM      30.31R
PRESCOTT       CLEAR     54   8  16 NW6       30.22R
FLAGSTAFF      CLEAR     41  11  29 CALM      30.32R
PAYSON         CLEAR     61   9  12 N7        30.22R
PAGE           CLEAR     54  18  24 CALM      30.23R
$$

AZZ009>014-017-220300-
NORTHEAST ARIZONA

CITY           SKY/WX    TMP DP  RH WIND       PRES   REMARKS
WINSLOW        CLEAR     48   0  13 W7        30.24R
SAINT JOHNS    CLEAR     49  11  21 W5        30.24R
WINDOW ROCK    CLEAR     45   5  19 NE6       30.30R
SHOW LOW       CLEAR     52   9  17 NE3       30.29R
$$

AZZ540-542>544-546-548-220300-
GREATER PHOENIX AREA

CITY           SKY/WX    TMP DP  RH WIND       PRES   REMARKS
PHOENIX        PTCLDY    79  41  25 S6        29.99R
BUCKEYE        CLEAR     73  34  23 W10       30.01R
GLENDALE       CLEAR     79  39  24 CALM      30.01R
LUKE AFB       CLEAR     74  42  31 SW9       29.98R
DEER VALLEY    CLEAR     76  39  26 SW3       30.01R
SCOTTSDALE     CLEAR     77  41  27 CALM      30.03R
MESA-FALCON    CLEAR     75  43  31 W5        30.02R
MESA-GATEWAY   CLEAR     75  41  29 CALM      30.02R
CHANDLER       CLEAR     77  39  25 SW5       30.00R
$$

AZZ539-553-220300-
SOUTHWEST MARICOPA COUNTY AND PINAL COUNTY

CITY           SKY/WX    TMP DP  RH WIND       PRES   REMARKS
CASA GRANDE    NOT AVBL
GILA BEND      CLEAR     79  39  24 S1        29.99R
$$

AZZ503-504-507>509-220300-
SOUTHEAST ARIZONA

CITY           SKY/WX    TMP DP  RH WIND       PRES   REMARKS
TUCSON         CLEAR     74  39  28 NW8       30.09R
DAVIS-MONTHAN  CLEAR     72  38  29 NW8       30.07R
RYAN FIELD     CLEAR     72  37  28 NW6       30.08R
NOGALES        CLEAR     64  37  36 NE6       30.11R
SIERRA VISTA   CLEAR     63  30  28 W8        30.18R
DOUGLAS        CLEAR     63  27  25 N10       30.12R
SAFFORD        CLEAR     71  29  21 NW9       30.05R
$$

AZZ532-220300-
SOUTHWEST ARIZONA

CITY           SKY/WX    TMP DP  RH WIND       PRES   REMARKS
YUMA           CLEAR     80  20  10 N10       30.02R
$$

CAZ041-043-047-048-061-525>527-560>570-220300-
SOUTHERN CALIFORNIA

CITY           SKY/WX    TMP DP  RH WIND       PRES   REMARKS
DOWNTOWN L.A.  CLEAR     71  45  39 CALM      30.03S
L.A. AIRPORT   CLEAR     69  51  52 CALM      30.04R
SAN DIEGO      PTCLDY    69  59  70 N6        30.03R
BURBANK        CLEAR     73  40  30 S3        30.06R
ONTARIO        PTCLDY    72  42  34 W6        30.06R
RIVERSIDE      CLEAR     74  43  32 CALM      30.06R
PALM SPRINGS   CLEAR     81  22  11 N9        30.07R
EL CENTRO NAS  CLEAR     76  28  17 W5        30.04R
IMPERIAL       CLEAR     73  36  25 SW3       30.02R
BLYTHE         CLEAR     77  15   9 N12       30.05R
NEEDLES        CLEAR     76   4   6 N12       30.09R
$$

NVZ020-UTZ003-220300-
SOUTHERN NEVADA-UTAH

CITY           SKY/WX    TMP DP  RH WIND       PRES   REMARKS
LAS VEGAS      PTCLDY    69  15  12 CALM      30.18R
SALT LAKE CITY MOCLDY    51  22  31 SE5       30.27R
$$

NMZ009-TXZ055-220300-
NEW MEXICO-WEST TEXAS

CITY           SKY/WX    TMP DP  RH WIND       PRES   REMARKS
ALBUQUERQUE    CLEAR     57   3  11 N14       30.21R
EL PASO        PTCLDY    74  29  19 W13       30.06R
$$


........................KEY........................
SKY/WX - SKY CONDITION/WEATHER
TMP    - TEMPERATURE IN FAHRENHEIT
DP     - DEW POINT IN FAHRENHEIT
RH     - RELATIVE HUMIDITY IN PERCENT
WIND   - DIRECTION AND SPEED IN MILES PER HOUR (MPH)
VRB    - VARIABLE WIND DIRECTION
PRES   - MEAN SEA LEVEL PRESSURE IN INCHES OF MERCURY
         F - FALLING PRESSURE   R - RISING PRESSURE
         S - STEADY PRESSURE
VSB    - VISIBILITY IN MILES
HX     - HEAT INDEX IN FAHRENHEIT
WCI    - WIND CHILL INDEX IN FAHRENHEIT
TC     - TEMPERATURE IN CELSIUS WHICH IS ALSO KNOWN AS
         TEMPERATURE IN CENTIGRADE
AFB    - AIR FORCE BASE
         LUKE AFB IS LUKE AIR FORCE BASE
         DAVIS-MONTHAN IS DAVIS-MONTHAN AIR FORCE BASE
NAS    - NAVAL AIR STATION
         EL CENTRO NAS IS EL CENTRO NAVAL AIR STATION
N/A    - NOT AVAILABLE





USA.gov is the U.S. government's official web portal to all federal, state and local government web resources and services.